CANX-4

Satellite information

Favourite Embed

Satellite Type and Status

PAYLOADIN ORBIT

Key statistics

Satellite CANX-4 at a glance.

Uptime

4026

Days in orbit

Revolutions

≈ 14.8

Per day

Orbit

SSO

Sun Synchronous Orbit

Inclination

98.4

Latest

Satellite identification and parameters

Extended collection of information and parameters for CANX-4.

Object identification

Identified? True

Debris? False

Object name: CANX-4

International designator: 2014-034C

Object number (NORAD): 40055

Object ID (CCSDS): 40055

Country: CANADA (CA)

Current information (Y/N): Y

RCS size: MEDIUM

Orbital parameters

Period: 97.279 minutes

Inclination: 98.3598 deg

SMA: 7006.606 km

Apoapsis: 638.209 km

Periapsis: 618.734 km

RAAN: 45.4091 deg

Eccentricy: 0.0013898

Argument of periapsis: 42.2767 deg

Mean anomaly: 317.9512 deg

Mean motion: 14.80270855 rev/day

Mean motion (dot): 0.00000761 rev/day2

B* drag term: 0.0001074 1/REarth

Two-line elements (TLE)

Creation date: July 7, 2025, 6:34 p.m.

Reference frame: TEME

Reference center: EARTH

Epoch: July 7, 2025, 12:50 p.m. UTC

TLE line 0: 0 CANX-4

TLE line 1: 1 40055U 14034C 25188.53504321 .00000761 00000-0 10740-3 0 9992

TLE line 2: 2 40055 98.3598 45.4091 0013898 42.2767 317.9512 14.80270855593520

Live tracking on map

Real-time ground track for satellite CANX-4.

In-orbit conjunctions

There are no conjunctions computed for CANX-4, at the moment. Check back to stay up to date, as we update our databases every day.

Go to all conjunctions

Associated space launch

CANX-4 was lifted into orbit during the mission ‘PSLV-CA | SPOT-7, CanX-4, CanX-5, AISat, VELOX-I’, on board a PSLV space rocket.

The launch took place on June 30, 2014, 4:22 a.m. from Satish Dhawan Space Centre First Launch Pad.

For more information about the launch, click the button.

Launch to space PSLV-CA | SPOT-7, CanX-4, CanX-5, AISat, VELOX-I
PSLV-CA | SPOT-7, CanX-4, CanX-5, AISat, VELOX-I

Agency: N/A

Status: Launch Successful

Launch date: June 30, 2014, 4:22 a.m. UTC

Rocket: PSLV

Launch pad: Satish Dhawan Space Centre First Launch Pad

Location: Satish Dhawan Space Centre, India

...

Latest news about this satellite

There are no fresh news available about this satellite. Check back as we update our databases every day.


Newsletter sign-up

Weekly statistics, charts and insights to help you stay on top of the space industry.